View from above orbital plane
|
View from above satellite
|
Ground track
|
The orbit data is extracted from the following two-line orbital elements,
1 25733U 99025D 21103.02613516 .00000084 00000-0 64736-4 0 9998
2 25733 98.9161 138.3298 0014943 186.1171 173.9823 14.16449620132170
Epoch (UTC): | 13 April 2021 00:37:38 |
Eccentricity: | 0.0014943 |
inclination: | 98.9161° |
perigee height: | 826 km |
apogee height: | 848 km |
right ascension of ascending node: | 138.3298° |
argument of perigee: | 186.1171° |
revolutions per day: | 14.16449620 |
mean anomaly at epoch: | 173.9823° |
orbit number at epoch: | 13217 |
The dashed part of the orbit path shows where the satellite is in the earth's shadow,
|
|